Weather in Trudovoye

Russia / Orenburg Oblast     51°43′28″N   52°43′39″E
temp.,
°C
wind,
m/s
gust,
m/s
humid.,
%
clouds,
%
prec.,
mm/h
press.,
hPa
HPBL,
m
27 february, sat
sat2723:00−14se61195100 0.1 1016318
02:00−11sse71295100 0.7 1011431
05:00−8sse91595100 4.8 1006580
08:00−5sse71295100 2.9 1003397
11:00−1s2499100 3.6 1002141
14:00+1wsw59100100 0.1 1001352
17:00+1sw59100100 0.1 1002417
20:000sw5998100 0.6 1001395
28 february, sun
sun2823:000sw5898100 1.1 1000419
02:000sw5998100 0.2 999447
05:000sw61098100 1.1 999499
08:00−4wnw589599 0.9 1000258
11:00−10nw589296 0.9 1002365
14:00−11wnw699197 0.1 1005419
17:00−12wnw699197 0.2 1008468
20:00−14wnw489497 0.1 1010266
1 march, mon
mon123:00−17wnw469593 0.1 1013116
02:00−18wnw349686 0.0 101469
05:00−19wnw339682 0.0 101641
08:00−18wnw349685 0.0 101869
11:00−15wnw359387 0.1 1019271
14:00−13wnw459290 0.0 1020344
17:00−13wnw359294 0.1 1022343
20:00−19wnw349537 0.0 102344
2 march, tue
tue223:00−21wnw339618 0.0 102426
02:00−22wnw23970 0.0 102320
05:00−22wsw239911 0.0 102320
08:00−22sw3410065 0.0 102141
11:00−17ssw589682 0.0 1019264
14:00−12ssw61194100 0.0 1016430
17:00−8ssw81393100 0.1 1013640
20:00−5ssw71595100 0.6 1010805
3 march, wed
wed323:00−3sw81496100 1.9 1007782
02:00−3ssw71496100 1.1 1004684
05:00−2sw61296100 2.0 1002568
08:00−3sw5997100 0.8 1001359
11:00−2w4795100 1.6 1002420
14:00−2wnw5894100 0.3 1002546
17:00−2wnw6988100 0.4 1004782
20:00−3wnw4893100 0.1 1005395